TimeEDT,TemperatureF,Dew PointF,Humidity,Sea Level PressureIn,VisibilityMPH,Wind Direction,Wind SpeedMPH,Gust SpeedMPH,PrecipitationIn,Events,Conditions,WindDirDegrees,DateUTC
12:53 AM,53.1,52.0,96,30.08,5.0,North,5.8,-,N/A,,Overcast,10,2012-10-09 04:53:00
1:53 AM,53.1,52.0,96,30.07,4.0,North,8.1,-,N/A,,Overcast,350,2012-10-09 05:53:00
2:53 AM,53.1,52.0,96,30.06,8.0,North,5.8,-,N/A,,Overcast,10,2012-10-09 06:53:00
4:53 AM,53.1,52.0,96,30.06,5.0,North,5.8,-,N/A,,Overcast,350,2012-10-09 08:53:00
5:28 AM,53.6,51.8,94,30.07,2.5,NNW,6.9,-,N/A,,Overcast,340,2012-10-09 09:28:00
5:53 AM,53.1,52.0,96,30.07,2.5,North,8.1,17.3,N/A,,Overcast,350,2012-10-09 09:53:00
6:46 AM,51.8,51.8,100,30.08,3.0,North,10.4,-,N/A,,Overcast,350,2012-10-09 10:46:00
6:53 AM,53.1,52.0,96,30.08,2.0,North,8.1,-,N/A,,Overcast,350,2012-10-09 10:53:00
7:53 AM,53.1,51.1,93,30.09,2.0,North,10.4,-,N/A,,Overcast,360,2012-10-09 11:53:00
8:53 AM,53.1,52.0,96,30.11,3.0,North,6.9,-,N/A,,Overcast,350,2012-10-09 12:53:00
9:53 AM,54.0,52.0,93,30.12,6.0,North,10.4,17.3,N/A,,Overcast,350,2012-10-09 13:53:00
10:48 AM,55.4,53.6,94,30.12,10.0,NNW,9.2,-,N/A,,Overcast,330,2012-10-09 14:48:00
10:53 AM,55.0,53.1,93,30.12,10.0,North,8.1,-,N/A,,Overcast,360,2012-10-09 14:53:00
11:53 AM,59.0,54.0,83,30.11,10.0,North,8.1,-,N/A,,Overcast,10,2012-10-09 15:53:00
12:31 PM,59.0,53.6,82,30.10,10.0,NNW,8.1,-,N/A,,Overcast,330,2012-10-09 16:31:00
12:53 PM,60.1,54.0,80,30.10,10.0,North,6.9,-,N/A,,Overcast,350,2012-10-09 16:53:00
1:53 PM,60.1,54.0,80,30.09,10.0,NNW,8.1,-,N/A,,Overcast,340,2012-10-09 17:53:00
2:53 PM,60.1,54.0,80,30.08,10.0,North,8.1,-,N/A,,Overcast,350,2012-10-09 18:53:00
3:53 PM,57.9,53.1,84,30.08,10.0,Variable,5.8,-,N/A,,Overcast,0,2012-10-09 19:53:00
4:53 PM,57.0,53.1,87,30.08,10.0,Variable,5.8,-,N/A,,Overcast,0,2012-10-09 20:53:00
5:53 PM,57.0,53.1,87,30.09,10.0,NNW,3.5,-,N/A,,Overcast,340,2012-10-09 21:53:00
6:53 PM,55.9,53.1,90,30.08,10.0,North,5.8,-,N/A,,Overcast,10,2012-10-09 22:53:00
7:20 PM,55.4,51.8,88,30.09,10.0,North,4.6,-,N/A,,Overcast,360,2012-10-09 23:20:00
7:53 PM,55.9,53.1,90,30.09,10.0,NW,3.5,-,N/A,,Overcast,320,2012-10-09 23:53:00
8:53 PM,55.0,53.1,93,30.10,3.0,WNW,3.5,-,N/A,,Overcast,290,2012-10-10 00:53:00
9:28 PM,55.4,53.6,94,30.11,4.0,West,3.5,-,N/A,,Overcast,280,2012-10-10 01:28:00
9:53 PM,55.0,54.0,96,30.12,3.0,Calm,Calm,-,N/A,,Overcast,0,2012-10-10 01:53:00
10:02 PM,55.4,53.6,94,30.12,3.0,Calm,Calm,-,N/A,,Overcast,0,2012-10-10 02:02:00
10:29 PM,55.4,53.6,94,30.12,4.0,Calm,Calm,-,N/A,,Overcast,0,2012-10-10 02:29:00
10:53 PM,55.0,54.0,96,30.12,6.0,Calm,Calm,-,N/A,,Overcast,0,2012-10-10 02:53:00
11:53 PM,55.0,54.0,96,30.12,8.0,Calm,Calm,-,N/A,,Overcast,0,2012-10-10 03:53:00